Vorticity
9 9 9 10 9 10 10 9 9 8 8 8 8 8 8 8 8 8 7 7 7 8 8 8 8 8 8 8 7 8 8 8 8 8 7 7 8 9 9 9 8 5 4 3 6 7 6 5 5 5 5 5 7 10 16 22 21 22 24 22 20 20 21 24 21 20 23 14 7 13 17 17 14 10 10 12 13 14 16 18 13 4 5 11 13
12 11 10 10 10 11 11 11 10 9 9 8 7 7 7 8 8 7 7 8 7 7 7 7 8 8 8 7 7 7 7 8 8 8 8 7 7 9 8 9 8 7 6 4 5 7 6 4 5 5 5 5 7 12 17 20 20 24 26 21 18 19 21 22 17 17 24 18 11 14 16 16 13 10 13 13 10 10 17 29 27 10 6 13 14
12 12 12 11 10 10 10 10 10 10 9 9 8 8 7 7 7 7 7 7 7 7 7 7 8 8 8 8 8 7 7 7 7 8 8 7 7 8 7 8 8 7 7 4 5 7 6 5 5 5 5 5 7 13 17 19 21 27 28 21 18 20 22 21 14 14 23 21 15 15 13 12 13 13 13 13 11 9 11 24 32 21 9 13 16
7 9 10 11 11 10 9 9 9 9 9 9 9 8 8 8 8 8 8 7 7 7 7 7 7 8 8 9 9 8 8 8 8 7 8 8 7 7 7 8 7 8 8 4 5 7 6 5 5 4 5 5 9 15 16 19 24 27 27 23 19 19 21 21 14 12 22 24 17 15 13 10 13 15 12 12 13 11 9 15 26 26 13 9 15
5 6 7 8 9 8 8 9 8 8 8 9 10 10 9 9 8 9 9 9 8 8 7 7 7 8 8 9 9 9 9 9 8 7 6 7 7 7 7 8 8 8 8 5 5 7 6 5 4 5 5 6 11 16 16 21 26 25 25 24 19 20 20 19 17 15 20 26 21 14 13 11 9 10 10 12 13 12 10 9 16 29 25 13 12
5 5 5 6 6 6 6 6 7 8 8 8 8 8 9 9 9 10 10 10 10 9 8 7 7 7 8 9 10 10 9 9 8 8 6 6 7 7 7 8 8 9 8 5 5 7 6 5 4 5 5 7 12 15 17 24 25 23 25 23 18 18 18 15 17 20 22 26 24 15 12 11 7 6 9 13 14 11 10 7 6 19 31 26 19
6 6 6 6 6 5 5 6 6 7 7 6 5 5 5 5 7 7 7 9 10 10 10 8 7 8 7 8 10 10 9 9 8 8 7 6 7 7 7 7 8 9 8 5 4 7 7 5 4 5 4 8 13 15 19 26 23 19 26 27 18 14 14 11 13 23 27 25 22 16 13 11 4 1 7 13 16 13 9 10 6 6 19 32 32
7 7 7 7 7 6 6 6 5 6 7 7 6 4 3 3 5 5 3 4 7 8 10 9 6 7 8 8 9 10 10 9 8 7 7 7 7 6 7 7 8 9 8 5 4 6 7 5 4 5 4 9 15 16 21 27 19 15 26 33 25 15 11 8 10 24 30 24 21 17 11 12 10 6 7 9 16 17 9 9 10 2 6 24 35
8 7 7 7 7 7 7 7 6 6 6 7 7 5 4 4 6 6 4 4 5 5 7 8 3 4 10 10 8 9 9 8 8 7 6 7 6 6 7 7 8 10 9 6 4 5 7 5 4 5 5 10 16 15 22 27 16 9 19 31 34 26 14 6 10 26 28 19 20 18 9 10 14 10 6 6 14 19 12 10 12 6 2 10 25
6 6 6 6 7 7 8 7 7 7 6 7 6 3 4 5 6 6 6 7 7 3 4 7 3 1 7 9 7 8 9 8 9 8 6 6 6 6 7 7 7 10 9 7 4 4 7 5 4 5 4 10 16 15 23 28 14 3 9 20 31 34 22 10 11 24 28 20 18 16 11 11 11 7 6 9 15 17 12 12 12 9 6 3 11
6 5 5 6 7 7 7 8 9 9 7 7 6 4 5 5 5 6 6 7 8 5 5 8 6 3 6 7 5 6 8 7 8 9 7 6 5 5 7 7 7 9 9 7 4 5 7 5 4 5 4 9 16 17 23 28 14 1 3 9 18 28 27 21 22 25 26 22 17 13 12 12 8 6 7 9 15 14 11 14 13 8 9 7 4
7 7 7 8 7 7 8 8 9 10 9 9 8 7 7 6 5 6 6 6 7 6 6 7 6 4 6 5 1 3 7 6 6 8 8 6 6 5 6 7 7 8 9 8 5 4 7 6 4 5 5 9 16 18 23 29 17 3 3 6 9 15 19 23 32 33 23 20 18 11 12 12 5 4 7 8 15 16 8 12 17 10 9 11 8
6 7 7 7 8 8 8 8 8 10 10 10 11 11 9 8 7 6 6 6 5 5 5 6 7 6 7 6 2 2 5 4 3 6 8 7 6 5 6 7 7 8 8 8 6 4 6 7 5 5 6 9 16 19 21 29 22 5 3 7 6 8 8 10 26 34 21 17 20 12 11 13 4 2 8 9 15 15 4 5 16 16 9 8 10
6 6 5 5 7 7 7 8 8 9 9 10 10 11 10 10 9 8 7 7 6 6 5 6 8 7 7 7 4 3 4 3 1 3 6 7 6 6 7 7 7 7 8 8 6 4 6 7 4 4 6 8 15 19 19 27 28 10 3 8 6 5 6 3 15 27 18 14 21 15 10 10 2 2 8 7 9 14 10 9 11 11 11 8 8
7 6 5 5 6 6 6 7 7 8 9 9 8 8 9 9 9 9 10 9 9 8 7 6 7 7 7 6 4 4 7 8 6 4 4 6 6 5 7 7 7 7 8 9 7 4 5 7 5 4 5 8 15 19 17 25 28 12 2 10 14 12 10 2 7 21 19 13 18 18 12 7 3 6 10 8 9 14 18 18 8 1 8 12 8
8 7 6 6 6 6 6 6 6 7 8 7 7 7 8 7 8 9 9 10 11 11 10 9 8 7 7 7 7 7 7 9 8 6 8 9 5 4 6 7 8 8 7 8 8 5 4 7 7 4 4 8 15 19 19 23 27 14 2 8 20 25 22 13 9 15 16 12 13 18 16 8 5 10 13 11 11 13 18 21 12 3 7 10 7
8 7 6 6 7 6 6 6 6 7 8 8 8 7 8 7 7 7 8 9 10 11 12 13 12 10 8 7 9 8 7 9 7 5 13 14 4 2 5 6 7 8 7 8 8 5 4 6 7 5 4 8 13 18 21 22 24 18 5 5 20 25 21 20 20 17 16 13 11 15 17 12 8 9 10 12 11 11 15 20 16 11 8 7 7
8 7 6 7 7 7 7 6 6 7 8 7 5 5 6 6 6 6 7 8 8 8 9 12 14 15 13 10 10 8 9 11 7 7 17 17 4 2 5 4 6 8 7 8 9 6 3 5 7 5 3 7 12 17 22 22 22 21 9 4 20 24 11 11 20 21 19 19 15 12 13 12 11 8 6 8 11 10 12 16 18 17 11 7 8
9 8 8 7 7 8 8 6 6 8 9 7 5 3 4 6 6 5 5 6 7 7 7 8 11 14 14 12 11 10 10 12 9 8 13 10 3 4 4 2 5 7 6 8 9 6 3 4 7 6 3 6 10 16 22 21 20 22 12 3 17 25 12 5 13 17 19 20 17 14 12 10 11 12 9 8 8 9 11 12 16 18 14 9 8
8 9 10 9 10 10 9 7 6 6 8 9 6 4 4 6 6 5 4 5 6 7 7 6 5 6 8 9 10 11 11 13 15 14 10 3 2 6 5 2 3 6 7 8 8 7 5 3 6 7 4 5 9 15 22 22 19 21 16 5 11 21 19 13 14 17 20 20 16 14 13 9 7 10 11 10 8 8 9 10 12 14 14 13 11
9 10 10 11 12 12 13 13 10 8 9 9 7 6 7 7 6 6 6 5 5 7 8 8 5 4 4 4 6 8 9 10 15 20 18 10 4 5 5 3 2 3 8 9 7 7 6 3 5 7 4 5 8 14 21 22 19 21 18 9 8 14 16 18 18 18 21 23 19 13 10 10 7 5 6 9 10 8 7 8 10 12 15 16 16
10 11 10 11 11 11 12 14 14 12 12 11 9 9 9 9 8 8 7 7 8 9 9 7 6 5 4 4 4 5 7 7 8 15 22 20 11 3 1 3 3 2 6 9 7 7 6 3 4 6 6 5 7 13 20 22 20 21 19 12 9 9 9 12 14 14 17 22 22 17 12 11 11 8 6 7 8 9 9 8 8 9 10 15 18
9 10 10 10 10 9 10 11 11 12 12 11 10 10 10 11 12 11 11 11 9 8 9 9 9 8 5 5 5 5 6 7 5 6 13 21 22 12 2 3 6 3 4 9 8 6 6 4 4 6 6 5 5 11 18 21 21 22 20 14 10 7 5 8 12 13 14 17 18 17 14 12 11 11 11 10 8 8 9 8 9 9 9 12 16
9 9 9 9 10 10 10 10 10 10 10 10 10 11 10 11 13 13 12 9 4 7 13 12 9 9 6 4 4 4 6 9 8 6 6 13 24 21 6 3 7 4 2 7 9 6 6 5 4 6 6 5 5 9 16 20 21 22 21 16 12 8 3 5 10 14 15 17 17 15 13 11 9 10 12 13 12 10 10 10 11 11 9 10 11
10 10 10 9 10 11 12 13 13 12 11 11 13 13 11 10 11 12 12 9 6 10 13 6 -0 2 4 4 4 4 5 8 11 11 8 7 18 24 12 2 3 1 0 6 9 6 6 6 5 5 6 5 5 7 14 19 21 23 22 17 13 11 5 2 7 11 13 15 18 18 15 12 10 10 12 14 14 14 13 12 12 12 12 11 10
10 10 11 10 9 10 11 12 13 13 12 12 13 13 10 7 8 10 10 8 7 9 10 7 5 6 5 5 6 4 2 5 9 13 12 6 11 24 20 6 2 2 1 5 8 7 6 6 5 4 6 6 5 5 11 17 20 24 25 18 13 14 10 4 4 8 11 13 16 19 20 18 14 12 13 14 14 16 18 18 17 15 13 9 8
9 9 10 9 9 10 10 10 12 12 13 14 13 12 9 5 5 7 8 7 7 7 8 7 9 10 7 7 9 6 3 3 6 12 17 10 6 19 25 14 8 9 5 3 7 8 6 6 5 4 5 7 5 4 9 15 18 23 26 20 13 13 13 9 4 5 8 11 12 15 19 22 19 13 11 15 18 17 18 22 24 20 14 11 11
10 9 8 8 7 7 8 8 9 9 11 12 12 12 12 10 8 8 9 10 9 8 7 6 7 9 8 6 8 7 4 4 6 11 18 15 6 13 24 21 15 14 8 2 5 8 6 6 6 4 5 7 5 4 8 14 18 22 25 23 15 11 13 13 7 4 6 8 10 12 15 20 22 15 10 16 21 15 9 12 20 22 18 15 13
12 10 8 7 6 5 5 4 4 4 4 4 5 6 7 9 11 10 9 11 11 9 8 7 6 9 12 10 8 8 6 7 7 7 12 15 8 8 22 26 16 9 6 3 4 7 6 6 6 4 4 6 6 5 7 12 16 20 23 25 20 12 10 13 11 6 5 5 7 11 14 18 21 15 8 10 15 13 6 3 10 19 19 13 9
11 12 9 8 7 6 4 3 2 1 0 -1 -1 1 2 4 9 11 10 10 11 11 10 7 4 6 11 11 9 9 7 7 7 5 10 17 10 5 20 31 15 -0 2 6 4 5 7 6 6 4 4 6 6 5 7 11 15 18 20 23 24 17 10 11 13 10 5 4 5 8 13 18 18 15 11 8 6 9 8 3 7 18 21 14 8
11 13 11 10 11 9 8 7 5 4 4 3 2 3 4 7 11 14 14 13 14 14 13 11 7 5 7 8 9 10 9 6 6 9 15 21 14 5 16 29 16 1 6 11 5 3 7 7 5 4 4 6 6 5 7 10 14 17 17 19 24 23 13 8 12 13 8 5 5 6 11 18 19 13 11 10 7 7 10 8 10 21 23 15 7
11 12 11 10 10 9 9 9 8 7 7 8 8 7 9 12 15 18 19 19 18 16 13 13 11 8 7 7 7 10 10 7 7 9 11 17 16 7 12 25 21 8 9 13 6 3 7 7 6 4 4 5 6 5 7 10 13 15 16 16 21 27 20 8 10 16 12 5 5 5 7 18 24 16 10 10 8 7 11 11 11 19 26 21 10
11 10 10 9 9 9 10 10 11 12 11 12 15 16 16 17 19 19 19 19 19 18 15 14 13 10 9 7 7 10 11 8 5 5 5 11 17 10 11 24 26 13 9 12 7 3 6 7 5 5 4 4 5 5 6 10 12 15 16 14 17 26 25 11 8 17 16 6 4 5 4 15 27 23 13 10 7 6 14 17 12 14 23 25 16
10 9 10 10 9 9 10 10 10 12 14 16 19 19 20 20 19 19 19 17 17 17 16 15 13 11 10 9 8 10 11 8 4 3 6 14 18 11 10 24 29 16 9 12 8 2 4 6 5 5 4 3 4 6 6 8 12 15 16 13 13 22 26 15 9 17 17 7 4 5 3 11 27 28 18 14 7 4 13 20 15 12 18 22 20
8 8 8 8 8 7 8 9 10 12 14 16 17 18 19 19 17 17 17 16 14 13 13 13 13 12 11 13 12 11 11 8 3 3 9 16 15 6 7 23 32 20 9 9 9 3 3 6 6 5 4 3 4 6 7 7 10 15 17 14 12 17 24 18 11 15 16 7 5 6 3 8 25 31 22 15 9 5 10 14 12 12 15 15 15
8 8 8 9 10 10 11 13 14 15 15 15 16 17 17 16 15 14 13 12 11 11 10 11 13 12 12 15 16 14 11 6 1 4 12 15 11 4 5 19 35 29 11 5 9 7 2 5 7 5 4 4 4 6 7 7 9 14 17 17 12 14 22 21 13 13 15 8 5 7 3 4 21 33 25 14 8 5 6 7 7 7 7 7 7
10 11 11 12 13 13 14 15 15 15 15 14 13 14 14 13 13 12 11 11 11 11 11 13 13 14 16 19 20 18 13 6 3 7 11 9 7 5 1 8 31 39 18 2 7 11 5 4 7 5 3 3 4 6 7 7 9 12 16 18 15 12 17 22 15 11 14 10 5 7 5 2 14 31 30 16 7 4 4 5 6 7 6 6 8
11 12 12 13 13 13 14 15 14 13 12 11 10 10 10 10 9 7 6 8 8 8 10 11 11 14 17 18 20 21 17 9 6 11 14 8 3 1 -4 2 31 46 22 -2 5 15 9 5 7 6 3 3 4 6 7 7 9 12 14 18 18 12 13 20 18 12 13 13 7 7 7 3 7 25 34 23 8 4 5 5 6 7 7 7 9
11 14 15 15 16 16 16 17 17 16 16 15 15 15 14 14 14 11 9 9 8 7 8 8 8 11 12 13 17 20 17 13 12 16 16 5 -5 -3 -0 6 31 47 24 -1 8 21 12 5 8 6 2 3 4 6 8 7 7 11 13 16 19 14 11 17 19 13 12 15 11 8 9 5 2 15 34 33 16 5 4 6 6 7 7 7 8
13 16 17 17 18 18 18 17 15 14 14 13 13 14 13 14 15 14 13 12 10 10 9 7 7 9 9 11 15 16 14 15 15 16 14 2 -7 -0 4 5 25 44 26 2 13 25 11 3 9 6 1 3 5 5 8 8 6 10 13 15 18 16 11 14 19 15 10 13 14 10 9 8 3 6 23 36 29 12 5 5 6 7 7 6 7
18 18 18 17 15 13 12 12 13 15 19 22 24 26 26 27 27 26 25 22 18 15 13 10 9 8 8 10 14 14 14 15 13 13 17 13 4 3 1 -2 20 45 28 1 12 27 12 1 9 8 -0 3 7 5 7 8 6 8 13 14 17 18 12 10 17 17 11 11 14 12 9 9 7 2 10 28 35 26 13 7 7 9 9 7 7
19 15 11 9 10 12 16 21 25 28 29 29 28 28 27 28 30 31 34 35 31 27 21 15 11 10 8 9 12 14 15 15 10 6 11 15 10 8 3 -2 14 40 29 -0 5 25 16 2 7 8 0 2 7 6 6 8 6 8 12 14 16 18 14 10 13 17 14 10 12 13 10 9 9 5 3 14 29 33 23 12 8 9 9 7 7
10 9 10 15 20 24 27 28 26 23 20 17 16 17 16 17 18 19 23 29 33 35 31 23 17 14 11 9 13 14 13 17 16 8 4 3 2 7 11 3 7 31 34 6 -3 15 18 6 4 7 2 2 7 7 6 7 7 7 11 14 16 17 15 11 11 15 16 12 9 12 12 10 10 9 4 5 19 33 31 20 13 10 8 7 8
13 18 23 27 27 24 22 19 15 14 14 14 15 17 17 16 18 17 16 19 24 30 33 30 23 19 14 11 15 16 15 16 17 12 9 5 -3 -2 8 4 -0 22 41 21 -2 6 18 10 4 6 4 2 6 8 6 6 8 7 9 13 16 16 15 13 10 12 15 14 9 9 12 11 11 11 7 4 10 26 34 30 20 13 9 6 8
26 27 25 22 18 15 15 14 13 16 18 17 18 19 18 18 19 18 16 17 18 22 28 30 27 24 19 14 14 18 18 14 11 11 15 15 5 0 7 3 -4 16 44 36 8 5 15 11 5 6 5 2 6 9 6 5 8 8 8 12 16 16 15 13 11 11 14 15 11 8 9 12 12 12 10 6 5 16 31 33 21 10 7 8 9
21 17 13 13 12 12 13 14 14 17 19 20 22 23 21 20 20 19 17 18 17 16 21 26 27 27 24 16 14 19 19 15 13 13 11 9 7 8 12 7 -2 11 37 36 15 9 14 11 5 6 6 4 7 9 6 5 7 8 8 11 14 16 15 13 11 11 12 14 14 10 8 10 13 13 11 8 4 8 21 29 21 8 4 7 12
11 10 11 13 13 14 16 18 18 20 24 26 25 24 21 20 20 17 16 18 17 16 17 20 23 28 27 19 16 20 19 15 16 15 7 4 9 16 18 9 1 11 33 35 19 11 14 9 4 5 6 5 7 8 6 5 7 8 8 10 13 16 15 12 12 13 12 11 13 13 9 8 12 14 13 11 6 3 10 20 24 17 6 1 7
11 13 14 15 16 17 20 22 21 22 26 27 25 22 21 21 21 17 15 17 18 16 15 15 19 25 26 22 19 21 19 17 18 16 5 -3 -1 9 17 12 5 16 36 35 18 13 15 8 1 5 8 7 7 8 6 5 7 8 8 9 12 15 16 13 10 13 14 12 11 13 11 8 9 12 13 13 10 5 3 8 18 25 22 8 0
15 15 16 16 17 19 22 23 21 20 21 22 22 20 19 20 21 19 16 16 18 17 15 14 16 20 23 23 22 21 19 18 18 17 9 -3 -8 1 12 7 1 16 35 29 13 14 18 8 -1 5 9 7 7 8 6 5 7 8 8 9 10 13 17 15 10 10 13 14 12 12 11 10 9 10 12 14 13 9 5 3 5 17 29 26 9
17 17 16 16 17 20 22 22 19 17 18 20 22 23 20 18 18 17 13 13 16 18 16 14 14 16 19 21 22 22 21 19 18 19 17 7 -2 -0 4 -2 -1 21 38 25 9 15 20 7 -1 5 9 5 6 9 7 5 7 8 8 9 10 11 15 16 12 10 11 13 14 13 11 9 10 10 10 13 14 12 9 7 2 4 18 31 26
20 18 16 16 20 22 22 21 20 19 20 22 23 23 21 17 14 12 9 7 11 17 19 16 14 15 17 18 20 22 22 21 20 20 17 7 -1 1 5 5 13 31 34 15 7 19 22 6 -2 4 7 5 8 10 6 5 7 8 7 9 10 10 13 15 14 12 10 11 14 15 12 9 10 11 10 11 14 14 12 11 7 2 5 19 29
Height
5768 5767 5766 5764 5763 5762 5760 5759 5757 5755 5754 5752 5750 5748 5747 5745 5743 5741 5739 5736 5734 5732 5729 5727 5725 5722 5719 5717 5714 5712 5709 5706 5703 5700 5697 5693 5690 5687 5683 5680 5676 5672 5668 5664 5660 5656 5652 5647 5642 5637 5631 5625 5619 5613 5607 5601 5594 5589 5583 5579 5575 5571 5569 5566 5564 5562 5561 5560 5560 5560 5561 5561 5560 5560 5560 5561 5562 5562 5562 5563 5564 5565 5566 5566 5567
5768 5767 5765 5764 5763 5761 5760 5759 5757 5755 5753 5751 5749 5748 5746 5744 5743 5741 5738 5736 5734 5731 5729 5727 5724 5721 5719 5716 5713 5710 5708 5705 5702 5699 5696 5692 5689 5686 5682 5679 5675 5671 5667 5663 5658 5654 5650 5646 5641 5636 5630 5624 5618 5612 5605 5598 5592 5587 5582 5577 5574 5570 5568 5565 5563 5561 5560 5559 5559 5559 5560 5560 5560 5560 5560 5560 5561 5562 5562 5562 5563 5564 5565 5566 5567
5768 5766 5765 5763 5762 5761 5759 5758 5756 5754 5752 5750 5749 5747 5745 5744 5742 5740 5738 5736 5733 5731 5729 5726 5724 5721 5718 5715 5712 5710 5707 5704 5701 5698 5695 5692 5688 5685 5681 5678 5674 5670 5666 5662 5658 5653 5649 5644 5639 5634 5628 5623 5616 5610 5603 5597 5591 5585 5580 5576 5572 5569 5567 5565 5562 5561 5559 5558 5558 5559 5560 5560 5560 5560 5560 5560 5561 5562 5562 5562 5563 5564 5565 5566 5567
5767 5766 5764 5763 5761 5760 5758 5757 5755 5753 5751 5749 5748 5746 5744 5743 5741 5739 5737 5735 5733 5730 5728 5726 5723 5721 5718 5715 5712 5709 5707 5704 5700 5697 5694 5691 5687 5684 5680 5677 5673 5669 5665 5661 5657 5652 5648 5643 5638 5633 5627 5621 5615 5608 5602 5595 5590 5584 5579 5575 5572 5568 5566 5564 5562 5560 5559 5558 5558 5559 5560 5560 5560 5560 5560 5560 5561 5561 5562 5563 5563 5563 5564 5565 5567
5767 5765 5764 5762 5760 5759 5757 5756 5754 5752 5750 5748 5746 5745 5743 5741 5740 5738 5736 5734 5731 5729 5727 5725 5722 5720 5717 5714 5712 5709 5706 5703 5700 5696 5693 5690 5686 5683 5680 5676 5672 5668 5664 5660 5656 5651 5647 5642 5637 5632 5626 5620 5613 5607 5600 5594 5589 5583 5579 5575 5571 5569 5566 5564 5562 5560 5559 5558 5559 5559 5560 5560 5561 5560 5560 5561 5561 5561 5562 5563 5563 5563 5564 5565 5566
5766 5765 5763 5761 5759 5758 5756 5754 5753 5751 5749 5747 5745 5743 5742 5740 5738 5736 5734 5732 5730 5728 5726 5724 5721 5719 5716 5713 5711 5708 5705 5702 5699 5696 5692 5689 5686 5682 5679 5675 5671 5667 5663 5659 5655 5650 5646 5641 5636 5631 5625 5619 5612 5606 5600 5594 5588 5583 5578 5574 5571 5569 5567 5564 5562 5560 5559 5559 5559 5560 5560 5561 5561 5561 5561 5561 5561 5562 5562 5563 5564 5564 5564 5565 5566
5766 5764 5762 5760 5758 5757 5755 5753 5752 5750 5748 5746 5744 5742 5741 5739 5736 5734 5732 5731 5729 5726 5724 5722 5720 5717 5715 5712 5710 5707 5704 5701 5698 5695 5692 5688 5685 5681 5678 5674 5670 5666 5662 5658 5654 5650 5645 5640 5635 5630 5624 5618 5612 5605 5599 5594 5588 5583 5579 5575 5572 5570 5567 5565 5563 5561 5560 5559 5560 5560 5561 5562 5562 5561 5561 5562 5562 5562 5563 5563 5564 5564 5564 5565 5566
5765 5763 5761 5760 5758 5756 5754 5752 5750 5748 5747 5745 5743 5741 5739 5737 5735 5733 5731 5729 5727 5725 5723 5721 5718 5716 5714 5711 5708 5706 5703 5700 5697 5694 5691 5688 5684 5681 5677 5673 5669 5666 5662 5657 5653 5649 5644 5640 5634 5629 5624 5618 5612 5606 5599 5594 5589 5584 5580 5576 5572 5570 5568 5566 5563 5562 5561 5560 5561 5561 5561 5562 5562 5562 5562 5562 5562 5563 5564 5564 5565 5565 5565 5566 5566
5764 5762 5760 5758 5757 5755 5753 5751 5750 5747 5745 5744 5742 5739 5737 5736 5734 5731 5729 5728 5726 5724 5721 5719 5717 5715 5712 5710 5707 5704 5702 5699 5696 5693 5690 5687 5683 5680 5676 5673 5669 5665 5661 5657 5653 5648 5644 5639 5634 5628 5623 5617 5612 5606 5600 5594 5590 5585 5581 5576 5573 5571 5569 5567 5564 5563 5562 5561 5562 5562 5562 5562 5563 5563 5563 5563 5563 5564 5564 5565 5566 5566 5567 5567 5568
5763 5761 5759 5757 5755 5754 5752 5750 5748 5746 5744 5742 5740 5738 5736 5734 5732 5730 5728 5726 5724 5722 5720 5718 5716 5713 5711 5708 5705 5703 5700 5698 5695 5692 5689 5685 5682 5679 5675 5672 5668 5664 5660 5656 5652 5647 5643 5639 5634 5628 5623 5617 5612 5606 5600 5595 5591 5587 5583 5578 5574 5572 5569 5567 5565 5564 5563 5563 5563 5563 5563 5564 5564 5564 5564 5564 5564 5565 5565 5566 5567 5568 5568 5568 5569
5761 5760 5758 5756 5754 5752 5751 5749 5747 5745 5743 5741 5739 5737 5734 5732 5730 5728 5726 5724 5722 5720 5718 5716 5714 5712 5709 5707 5704 5701 5699 5696 5693 5691 5687 5684 5681 5677 5674 5670 5667 5663 5660 5655 5651 5647 5643 5638 5634 5628 5623 5618 5612 5607 5601 5596 5592 5588 5584 5580 5576 5573 5571 5568 5566 5565 5564 5564 5564 5564 5565 5565 5566 5566 5566 5566 5566 5566 5566 5567 5567 5568 5569 5570 5571
5760 5758 5756 5754 5752 5751 5749 5747 5745 5744 5742 5740 5738 5736 5733 5731 5729 5727 5724 5722 5720 5718 5716 5714 5712 5710 5708 5705 5702 5700 5697 5694 5692 5689 5686 5683 5680 5676 5673 5669 5666 5663 5659 5655 5651 5647 5642 5638 5633 5628 5623 5618 5612 5607 5602 5597 5593 5589 5586 5582 5579 5575 5572 5570 5568 5566 5565 5565 5566 5566 5566 5567 5567 5568 5568 5567 5567 5567 5568 5568 5568 5569 5570 5571 5572
5758 5756 5754 5752 5750 5749 5747 5745 5744 5742 5740 5738 5736 5734 5732 5729 5727 5725 5722 5720 5718 5716 5714 5712 5710 5708 5706 5703 5700 5698 5695 5693 5690 5687 5685 5682 5678 5675 5672 5669 5665 5662 5658 5655 5651 5646 5642 5638 5633 5628 5623 5618 5613 5608 5603 5598 5593 5590 5587 5584 5581 5578 5574 5572 5570 5568 5568 5567 5567 5567 5568 5568 5569 5569 5569 5569 5569 5569 5569 5569 5569 5570 5571 5572 5573
5756 5754 5752 5750 5748 5746 5744 5743 5741 5739 5737 5735 5734 5732 5730 5728 5726 5723 5721 5719 5716 5714 5712 5710 5708 5706 5703 5701 5699 5696 5694 5691 5689 5686 5683 5680 5677 5674 5671 5668 5664 5661 5658 5654 5650 5646 5642 5638 5633 5628 5623 5618 5613 5608 5604 5599 5595 5591 5588 5585 5583 5580 5577 5574 5572 5571 5570 5569 5569 5569 5570 5570 5570 5571 5571 5571 5571 5570 5570 5571 5571 5571 5572 5573 5574
5753 5751 5749 5747 5745 5743 5741 5739 5738 5737 5735 5733 5731 5729 5728 5726 5724 5722 5719 5716 5714 5712 5710 5708 5706 5704 5701 5699 5697 5694 5692 5689 5687 5684 5682 5679 5676 5673 5670 5666 5663 5660 5657 5654 5650 5646 5642 5638 5633 5628 5623 5618 5614 5609 5605 5600 5596 5592 5589 5587 5584 5581 5579 5577 5575 5573 5572 5571 5571 5571 5571 5572 5572 5572 5572 5572 5572 5572 5572 5572 5572 5573 5573 5574 5575
5750 5748 5746 5744 5742 5740 5738 5736 5734 5733 5732 5730 5728 5727 5725 5723 5721 5719 5716 5714 5712 5710 5708 5706 5703 5701 5699 5696 5694 5692 5690 5687 5685 5683 5680 5677 5675 5671 5668 5665 5662 5660 5657 5653 5649 5646 5642 5638 5634 5629 5624 5619 5615 5610 5605 5601 5597 5593 5591 5588 5585 5582 5580 5578 5576 5575 5574 5573 5572 5572 5573 5573 5574 5574 5574 5574 5574 5573 5573 5573 5574 5574 5574 5575 5576
5747 5745 5743 5741 5739 5737 5735 5733 5731 5730 5728 5727 5725 5724 5722 5720 5718 5716 5714 5711 5709 5707 5705 5703 5701 5699 5696 5694 5692 5690 5687 5685 5683 5681 5678 5675 5673 5670 5667 5664 5661 5658 5656 5653 5649 5645 5642 5638 5633 5629 5624 5619 5615 5611 5606 5602 5598 5595 5592 5589 5586 5583 5580 5579 5577 5576 5576 5575 5574 5573 5574 5574 5574 5575 5575 5575 5575 5575 5575 5575 5575 5575 5576 5576 5577
5744 5742 5740 5738 5736 5734 5731 5729 5727 5726 5724 5722 5721 5720 5718 5717 5715 5713 5711 5709 5706 5704 5702 5700 5698 5696 5694 5691 5689 5687 5685 5683 5681 5678 5676 5673 5671 5668 5665 5662 5660 5657 5655 5652 5649 5645 5641 5637 5633 5629 5625 5620 5616 5612 5607 5603 5599 5596 5593 5590 5587 5584 5582 5580 5578 5577 5576 5576 5575 5575 5575 5575 5575 5576 5576 5576 5576 5576 5576 5576 5576 5576 5577 5578 5578
5740 5739 5737 5734 5732 5730 5728 5726 5724 5723 5721 5719 5717 5716 5714 5713 5711 5709 5707 5706 5703 5701 5699 5697 5695 5694 5692 5689 5687 5684 5682 5680 5678 5676 5674 5672 5669 5667 5664 5661 5658 5656 5654 5651 5648 5644 5641 5637 5633 5629 5625 5620 5616 5612 5608 5604 5601 5597 5594 5591 5588 5585 5583 5582 5580 5579 5578 5577 5576 5576 5575 5575 5576 5576 5577 5577 5577 5577 5577 5577 5577 5577 5578 5579 5579
5737 5736 5734 5731 5729 5727 5725 5723 5721 5719 5719 5717 5715 5712 5710 5709 5708 5706 5703 5702 5700 5698 5696 5694 5692 5691 5689 5687 5684 5682 5680 5677 5675 5674 5672 5670 5668 5665 5662 5660 5657 5655 5652 5650 5647 5644 5640 5637 5633 5629 5625 5620 5616 5613 5609 5605 5602 5598 5595 5592 5589 5587 5585 5583 5581 5580 5579 5578 5578 5577 5577 5576 5576 5577 5577 5578 5578 5578 5578 5578 5578 5579 5579 5580 5580
5734 5732 5731 5729 5726 5725 5723 5721 5718 5716 5715 5713 5711 5709 5706 5705 5703 5702 5700 5698 5696 5694 5693 5691 5689 5687 5686 5684 5682 5680 5678 5675 5673 5671 5669 5667 5665 5663 5661 5658 5656 5653 5651 5649 5646 5643 5640 5636 5633 5629 5625 5621 5617 5613 5610 5606 5603 5599 5596 5593 5591 5589 5586 5584 5582 5581 5580 5579 5579 5578 5578 5577 5577 5578 5578 5578 5579 5579 5579 5579 5580 5580 5580 5581 5581
5731 5729 5727 5726 5724 5721 5720 5718 5715 5713 5711 5709 5707 5705 5703 5701 5700 5698 5696 5693 5692 5690 5689 5688 5686 5684 5683 5681 5679 5677 5675 5673 5670 5668 5666 5664 5663 5661 5659 5656 5654 5652 5650 5647 5645 5642 5639 5636 5633 5629 5625 5621 5617 5613 5610 5607 5604 5600 5597 5594 5592 5590 5588 5586 5584 5582 5581 5580 5580 5579 5579 5579 5578 5578 5578 5578 5579 5579 5580 5580 5581 5581 5581 5581 5582
5727 5725 5724 5722 5720 5718 5716 5714 5712 5710 5708 5706 5703 5701 5699 5698 5696 5694 5691 5689 5687 5686 5685 5684 5683 5681 5679 5678 5676 5674 5672 5670 5668 5665 5663 5661 5660 5658 5656 5654 5652 5650 5648 5646 5644 5641 5638 5635 5633 5629 5626 5621 5617 5613 5611 5608 5604 5601 5598 5595 5593 5591 5589 5587 5586 5584 5583 5582 5581 5580 5580 5579 5579 5579 5579 5579 5579 5579 5580 5580 5581 5581 5582 5582 5582
5724 5722 5720 5718 5716 5714 5712 5710 5708 5706 5703 5702 5700 5698 5696 5694 5693 5690 5687 5684 5682 5681 5681 5680 5679 5677 5676 5674 5673 5671 5669 5667 5665 5663 5660 5658 5657 5655 5654 5652 5650 5648 5646 5644 5642 5640 5637 5635 5632 5629 5626 5622 5617 5614 5611 5608 5605 5602 5599 5596 5594 5592 5590 5589 5587 5586 5584 5583 5582 5581 5580 5580 5580 5580 5580 5579 5579 5579 5579 5580 5581 5581 5582 5582 5583
5719 5718 5716 5714 5712 5710 5708 5706 5704 5702 5699 5697 5695 5693 5691 5690 5688 5686 5683 5680 5678 5678 5677 5676 5674 5673 5672 5671 5669 5668 5665 5663 5662 5660 5657 5655 5654 5652 5651 5649 5647 5645 5644 5642 5641 5639 5636 5634 5631 5629 5626 5622 5618 5614 5611 5608 5605 5603 5600 5597 5595 5594 5592 5590 5589 5587 5586 5584 5582 5581 5580 5580 5580 5580 5580 5580 5579 5579 5579 5579 5580 5581 5582 5582 5583
5713 5712 5710 5709 5707 5705 5704 5702 5700 5697 5695 5693 5691 5689 5687 5685 5684 5682 5679 5676 5675 5674 5673 5671 5671 5670 5669 5668 5666 5664 5662 5660 5658 5657 5654 5652 5650 5649 5647 5646 5645 5643 5642 5640 5639 5637 5635 5633 5631 5628 5625 5622 5618 5614 5611 5608 5606 5603 5601 5598 5596 5595 5593 5591 5590 5588 5587 5585 5584 5582 5581 5580 5580 5580 5580 5580 5580 5580 5580 5580 5580 5581 5581 5582 5583
5707 5705 5704 5703 5701 5700 5698 5697 5695 5693 5691 5689 5687 5685 5683 5681 5679 5677 5675 5672 5671 5669 5668 5667 5666 5666 5665 5664 5662 5661 5659 5656 5654 5653 5651 5648 5647 5645 5644 5643 5642 5641 5639 5638 5637 5635 5633 5632 5630 5627 5625 5622 5618 5614 5611 5608 5606 5603 5601 5598 5597 5595 5594 5592 5591 5589 5588 5586 5585 5583 5582 5581 5581 5581 5581 5581 5581 5580 5580 5581 5581 5581 5582 5583 5584
5701 5699 5698 5696 5695 5693 5692 5690 5689 5687 5686 5684 5682 5680 5679 5676 5674 5672 5670 5668 5667 5665 5663 5662 5661 5661 5660 5659 5658 5657 5655 5652 5650 5648 5647 5645 5643 5642 5641 5640 5639 5638 5637 5636 5635 5633 5632 5630 5628 5626 5624 5621 5618 5614 5611 5608 5606 5604 5601 5599 5597 5596 5595 5593 5592 5590 5589 5587 5586 5585 5583 5583 5582 5582 5582 5582 5582 5582 5582 5582 5582 5582 5582 5583 5584
5696 5694 5692 5690 5689 5687 5685 5684 5682 5680 5679 5678 5676 5675 5673 5672 5669 5666 5664 5663 5661 5660 5658 5657 5656 5655 5655 5654 5653 5652 5651 5649 5646 5644 5643 5641 5640 5639 5637 5636 5636 5635 5634 5633 5632 5631 5630 5628 5627 5625 5623 5621 5618 5614 5611 5608 5606 5604 5601 5599 5597 5596 5595 5594 5592 5591 5589 5588 5587 5586 5585 5584 5583 5583 5583 5583 5583 5583 5583 5584 5584 5584 5584 5584 5585
5692 5690 5687 5685 5683 5682 5680 5678 5676 5673 5671 5670 5669 5668 5667 5665 5663 5661 5658 5657 5655 5654 5653 5652 5650 5649 5649 5649 5648 5647 5646 5644 5642 5640 5639 5638 5637 5635 5634 5633 5632 5632 5631 5630 5630 5629 5627 5626 5625 5624 5622 5620 5617 5614 5611 5608 5606 5604 5602 5599 5597 5596 5595 5594 5592 5591 5590 5589 5588 5586 5585 5585 5584 5584 5584 5584 5584 5584 5585 5585 5585 5585 5585 5585 5586
5687 5685 5683 5680 5678 5676 5674 5672 5670 5667 5665 5663 5661 5660 5658 5657 5656 5654 5652 5650 5649 5647 5647 5646 5644 5643 5643 5643 5642 5642 5641 5640 5638 5636 5635 5634 5633 5632 5631 5630 5629 5629 5628 5628 5627 5626 5625 5624 5624 5623 5621 5619 5616 5613 5611 5608 5605 5603 5601 5599 5597 5595 5595 5594 5593 5591 5590 5589 5588 5587 5586 5585 5584 5584 5584 5585 5585 5585 5585 5586 5586 5586 5586 5586 5587
5681 5678 5676 5674 5672 5670 5667 5665 5663 5661 5659 5656 5654 5652 5650 5649 5648 5646 5644 5643 5642 5641 5640 5640 5639 5638 5637 5636 5636 5636 5635 5635 5634 5632 5631 5630 5629 5629 5628 5627 5626 5626 5625 5625 5624 5624 5623 5622 5622 5621 5620 5618 5615 5613 5610 5608 5605 5603 5601 5599 5597 5595 5594 5594 5593 5591 5591 5590 5589 5588 5587 5585 5585 5584 5585 5585 5585 5586 5586 5586 5586 5586 5587 5587 5588
5674 5672 5669 5667 5665 5663 5660 5658 5656 5654 5652 5649 5647 5645 5643 5642 5641 5639 5638 5636 5635 5634 5633 5633 5632 5632 5631 5631 5630 5630 5630 5629 5628 5627 5626 5626 5625 5625 5624 5623 5623 5622 5622 5622 5621 5621 5621 5620 5620 5619 5618 5616 5614 5612 5610 5607 5605 5603 5601 5599 5597 5595 5594 5593 5592 5591 5591 5590 5589 5589 5587 5586 5585 5585 5585 5585 5586 5586 5586 5587 5587 5587 5587 5588 5589
5667 5665 5662 5660 5658 5655 5653 5651 5649 5646 5644 5642 5640 5638 5637 5635 5634 5633 5632 5630 5629 5628 5627 5626 5626 5626 5625 5625 5624 5624 5624 5624 5623 5622 5622 5621 5621 5621 5620 5620 5619 5619 5619 5619 5618 5618 5619 5618 5618 5617 5617 5615 5613 5611 5609 5607 5605 5603 5601 5599 5597 5595 5593 5593 5592 5591 5591 5590 5590 5589 5588 5587 5586 5585 5585 5586 5586 5587 5587 5587 5588 5588 5588 5589 5589
5660 5657 5655 5652 5650 5647 5645 5643 5640 5639 5637 5635 5634 5632 5630 5629 5628 5627 5626 5625 5623 5622 5620 5620 5620 5619 5619 5619 5619 5619 5619 5618 5618 5617 5617 5617 5618 5617 5617 5616 5616 5616 5616 5616 5615 5616 5616 5616 5615 5615 5615 5614 5612 5610 5608 5606 5605 5603 5601 5599 5597 5595 5593 5593 5592 5591 5591 5590 5590 5589 5588 5587 5586 5585 5585 5586 5587 5587 5588 5588 5588 5589 5589 5590 5590
5653 5650 5647 5644 5642 5639 5637 5635 5632 5630 5629 5628 5626 5625 5624 5623 5621 5620 5619 5619 5617 5616 5615 5614 5613 5614 5614 5613 5613 5613 5613 5613 5613 5613 5613 5614 5614 5613 5613 5613 5612 5612 5612 5613 5613 5613 5613 5613 5613 5613 5613 5612 5611 5609 5608 5606 5604 5602 5601 5599 5597 5595 5593 5593 5592 5592 5591 5590 5590 5589 5589 5588 5587 5586 5586 5586 5587 5588 5588 5589 5589 5590 5590 5591 5592
5646 5643 5640 5637 5634 5632 5629 5627 5625 5623 5621 5620 5619 5618 5618 5617 5616 5614 5613 5612 5611 5610 5609 5608 5607 5607 5608 5607 5608 5608 5608 5608 5608 5609 5609 5609 5609 5609 5609 5610 5609 5609 5609 5609 5609 5610 5610 5611 5611 5611 5611 5610 5609 5608 5607 5605 5603 5602 5600 5598 5597 5595 5594 5593 5592 5592 5591 5590 5590 5590 5589 5588 5587 5586 5586 5586 5587 5588 5589 5589 5590 5590 5591 5592 5592
5638 5635 5632 5629 5627 5624 5621 5619 5617 5615 5614 5612 5611 5610 5610 5610 5609 5608 5606 5604 5604 5604 5603 5602 5602 5601 5601 5601 5602 5603 5603 5603 5603 5604 5605 5605 5605 5606 5606 5606 5606 5605 5606 5606 5607 5607 5608 5608 5608 5609 5609 5608 5608 5607 5606 5604 5603 5601 5600 5598 5597 5595 5594 5593 5592 5592 5591 5590 5590 5590 5590 5589 5588 5587 5586 5587 5587 5588 5589 5590 5591 5591 5591 5592 5593
5631 5628 5625 5622 5619 5616 5613 5611 5609 5607 5606 5604 5602 5601 5601 5600 5600 5600 5599 5597 5596 5596 5596 5596 5595 5595 5595 5596 5597 5597 5598 5598 5598 5600 5600 5601 5601 5602 5603 5603 5602 5602 5603 5603 5604 5604 5605 5606 5606 5606 5606 5606 5606 5605 5604 5603 5602 5601 5599 5598 5596 5595 5594 5593 5592 5592 5591 5590 5590 5590 5590 5589 5589 5587 5587 5587 5587 5588 5589 5590 5591 5592 5592 5592 5593
5624 5621 5617 5614 5611 5608 5606 5603 5601 5600 5598 5596 5594 5592 5591 5590 5590 5590 5590 5589 5588 5588 5589 5589 5589 5589 5589 5590 5591 5592 5593 5593 5593 5594 5596 5597 5597 5599 5599 5600 5599 5599 5600 5600 5600 5601 5602 5603 5604 5604 5604 5604 5604 5603 5603 5602 5601 5600 5599 5598 5596 5595 5594 5593 5592 5592 5591 5590 5590 5590 5590 5590 5589 5588 5587 5587 5587 5588 5589 5590 5591 5591 5592 5593 5593
5615 5613 5610 5606 5603 5601 5598 5595 5593 5591 5589 5587 5585 5583 5581 5580 5580 5580 5580 5580 5579 5579 5580 5581 5581 5582 5583 5584 5585 5587 5588 5589 5589 5590 5591 5592 5593 5595 5596 5596 5596 5596 5597 5597 5598 5598 5600 5601 5601 5602 5602 5602 5602 5602 5601 5601 5600 5600 5598 5597 5596 5595 5594 5593 5592 5592 5591 5590 5590 5590 5590 5590 5590 5589 5588 5588 5587 5588 5589 5590 5590 5591 5592 5593 5594
5607 5604 5602 5598 5595 5592 5590 5587 5584 5581 5579 5577 5576 5574 5573 5572 5571 5570 5570 5570 5570 5570 5571 5573 5573 5574 5576 5577 5579 5581 5583 5583 5584 5585 5587 5588 5589 5590 5592 5593 5594 5594 5594 5595 5595 5596 5597 5598 5599 5599 5600 5600 5600 5600 5600 5600 5599 5599 5598 5597 5595 5594 5593 5593 5592 5592 5591 5591 5590 5589 5589 5590 5590 5589 5589 5588 5588 5588 5588 5589 5590 5591 5592 5593 5593
5600 5597 5594 5591 5587 5584 5581 5579 5576 5574 5572 5570 5568 5567 5566 5565 5564 5563 5562 5562 5562 5562 5563 5564 5565 5567 5569 5571 5572 5575 5577 5578 5579 5581 5583 5584 5585 5586 5588 5589 5590 5591 5591 5592 5593 5593 5594 5596 5597 5597 5598 5598 5599 5598 5598 5598 5598 5597 5597 5596 5595 5594 5593 5592 5592 5592 5591 5591 5590 5589 5589 5589 5590 5589 5589 5588 5588 5588 5588 5589 5590 5591 5592 5593 5593
5594 5590 5587 5583 5580 5577 5574 5572 5570 5568 5566 5564 5562 5560 5559 5558 5557 5556 5556 5555 5555 5555 5556 5556 5558 5559 5562 5564 5566 5568 5571 5573 5574 5576 5579 5580 5581 5582 5584 5586 5587 5587 5587 5588 5590 5591 5592 5593 5595 5595 5596 5596 5597 5597 5597 5597 5597 5596 5596 5595 5595 5594 5593 5592 5592 5591 5591 5591 5590 5589 5589 5589 5589 5589 5589 5589 5588 5588 5588 5588 5589 5591 5592 5592 5593
5586 5583 5580 5577 5574 5571 5568 5566 5564 5562 5559 5557 5555 5554 5552 5551 5551 5550 5550 5549 5549 5550 5550 5550 5551 5553 5555 5557 5559 5562 5566 5568 5569 5571 5575 5577 5577 5578 5580 5583 5583 5583 5583 5585 5587 5589 5589 5591 5592 5593 5594 5594 5595 5595 5595 5595 5596 5595 5595 5594 5594 5593 5593 5592 5591 5591 5591 5591 5591 5590 5589 5589 5589 5590 5590 5589 5589 5588 5588 5589 5590 5591 5592 5592 5593
5579 5576 5573 5570 5567 5565 5562 5559 5557 5555 5553 5551 5549 5547 5546 5545 5544 5544 5543 5543 5544 5544 5544 5544 5545 5547 5549 5551 5553 5556 5560 5562 5564 5566 5570 5572 5573 5574 5576 5579 5579 5580 5580 5582 5585 5586 5587 5588 5590 5591 5592 5592 5593 5593 5593 5594 5594 5594 5594 5593 5593 5593 5592 5591 5591 5591 5591 5591 5591 5590 5589 5589 5589 5590 5590 5590 5590 5589 5589 5590 5590 5591 5592 5592 5593
5573 5570 5566 5563 5560 5558 5556 5553 5551 5549 5547 5545 5543 5541 5540 5539 5538 5537 5537 5538 5538 5539 5539 5539 5540 5541 5543 5545 5547 5550 5554 5557 5559 5562 5565 5567 5569 5571 5573 5575 5576 5576 5577 5579 5582 5583 5584 5586 5588 5589 5590 5591 5591 5591 5592 5593 5593 5593 5593 5592 5592 5593 5592 5591 5591 5590 5590 5591 5591 5590 5589 5589 5589 5590 5590 5590 5590 5590 5590 5590 5591 5591 5592 5593 5593
5567 5564 5560 5557 5554 5552 5550 5547 5544 5542 5540 5539 5537 5535 5534 5533 5532 5531 5531 5532 5533 5534 5534 5535 5536 5537 5538 5540 5542 5545 5548 5552 5554 5557 5561 5564 5566 5568 5570 5571 5572 5573 5574 5576 5579 5580 5581 5583 5585 5587 5588 5589 5589 5590 5591 5591 5592 5592 5592 5591 5591 5592 5592 5591 5590 5590 5590 5590 5590 5590 5590 5589 5589 5590 5590 5590 5591 5591 5591 5591 5591 5591 5592 5593 5593
5561 5557 5554 5551 5548 5546 5544 5541 5538 5536 5534 5532 5531 5530 5528 5527 5527 5526 5525 5526 5527 5529 5530 5530 5531 5532 5534 5535 5537 5540 5543 5547 5550 5553 5557 5560 5562 5564 5566 5567 5569 5570 5572 5574 5576 5577 5579 5581 5583 5585 5586 5587 5588 5588 5589 5590 5590 5591 5591 5591 5590 5591 5591 5591 5590 5590 5590 5590 5590 5590 5590 5589 5589 5590 5590 5590 5591 5591 5591 5591 5591 5592 5592 5592 5593
5555 5551 5548 5545 5543 5541 5538 5535 5533 5530 5528 5526 5525 5524 5523 5522 5522 5521 5520 5520 5522 5524 5525 5526 5527 5528 5530 5531 5533 5535 5539 5542 5546 5549 5553 5556 5559 5561 5563 5565 5566 5567 5569 5571 5573 5575 5576 5579 5581 5583 5584 5585 5586 5587 5588 5588 5589 5590 5590 5590 5590 5590 5590 5590 5590 5589 5589 5589 5590 5590 5590 5589 5589 5590 5590 5590 5591 5591 5591 5591 5592 5592 5592 5592 5593
5550 5546 5543 5540 5539 5536 5533 5530 5527 5525 5522 5521 5519 5518 5518 5517 5516 5516 5515 5515 5517 5519 5520 5522 5523 5524 5526 5527 5529 5532 5535 5539 5542 5545 5549 5552 5555 5558 5561 5563 5563 5564 5566 5569 5571 5572 5574 5576 5579 5581 5582 5583 5584 5585 5586 5587 5587 5588 5589 5589 5589 5589 5589 5589 5589 5589 5589 5589 5589 5590 5590 5589 5589 5589 5590 5590 5591 5591 5591 5591 5592 5592 5593 5593 5594